[[{"header":{"parameterUnit":"m.s-1","parameterCategory":1,"la1":30.2991,"la2":30.254,"lo1":-89.0895,"lo2":-89.0444,"dy":0.0017,"dx":0.0017,"nx":28,"ny":28,"refTime":"2025-05-15T09:00:00:Z","depth":0,"parameterNumber":2,"parameterNumberName":"U-component_of_WINDS"},"data":[0,0,0,0,0,0,0,0,0,0,0,0,0,0,0,0,0,0,0,0,0,0,0,0,0,0,0,0,0,0,0,0,0,0,0,0,0,0,0,0,0,0,0,0,0,0,0,0,0,0,0,0,0,0,0,0,0,0,2.1572,2.1572,0,2.1564,2.1564,2.1564,2.1492,2.149,2.1488,2.1486,2.1479,2.1481,2.1482,0,0,0,0,0,0,0,0,0,0,0,0,0,2.1522,2.1523,2.1572,2.1572,2.1572,2.1564,2.1564,2.1564,2.1492,2.149,2.1488,2.1486,2.1479,2.1481,2.1483,0,0,0,0,0,0,0,0,0,0,0,0,0,2.1532,2.1524,2.1572,2.1535,2.1531,2.1564,2.1564,2.1564,2.1493,2.149,2.1487,2.1485,2.1478,2.1481,2.1483,2.1551,0,0,2.149,2.1491,0,0,0,0,0,0,0,0,2.1532,2.1534,2.154,2.1537,2.1534,2.1526,2.1544,2.156,2.1493,2.1507,2.1486,2.1483,2.1497,2.1498,2.1502,2.1551,2.155,2.149,2.1491,2.1492,2.1493,0,0,0,0,0,0,0,2.1531,2.1534,2.1569,2.154,2.1536,2.1518,2.1516,2.1547,2.1518,2.1506,2.1501,2.1501,2.1495,2.15,2.1502,2.155,2.149,2.1492,2.1493,2.1494,2.165,2.1653,0,0,0,0,0,0,2.1536,2.1534,2.1569,2.1569,2.1526,2.1521,2.1519,2.1531,2.1517,2.1512,2.1503,2.1497,2.1498,2.1499,2.1501,2.1577,2.1492,2.1494,2.1496,2.1648,2.1651,2.1654,0,0,0,0,0,0,2.1535,2.1539,2.1569,2.155,2.1552,2.1525,2.1539,2.1533,2.1538,2.1515,2.1509,2.1514,2.1496,2.1498,2.1538,2.1576,2.1495,2.1497,2.1644,2.1649,2.1652,2.1732,0,0,0,0,0,0,2.1534,2.154,2.1566,2.1551,2.1554,2.1607,2.1541,2.1534,2.1542,2.1534,2.1524,2.1519,2.1494,2.1535,2.1541,2.1578,2.1499,2.1641,2.1646,2.1651,2.1726,2.1739,2.1749,0,0,0,0,0,2.1532,2.159,2.1568,2.1572,2.1586,2.161,2.1611,2.1581,2.1545,2.1571,2.1555,2.152,2.1572,2.154,2.1545,2.1584,2.1638,2.1645,2.1651,2.1721,2.1736,2.1749,0,0,0,0,0,0,2.1611,2.1587,2.1562,2.1617,2.1616,2.1598,2.1629,2.1598,2.1608,2.16,2.1562,2.156,2.1605,2.1599,2.1564,2.1647,2.1598,2.1606,2.165,2.1664,2.1676,2.1676,2.1501,0,0,0,0,0,2.1634,2.1656,2.1634,2.1684,2.1685,2.1657,2.1667,2.1643,2.164,2.1639,2.1627,2.1626,2.1641,2.1653,2.1666,2.1725,2.172,2.1754,2.1765,2.1775,2.1782,2.1809,2.1823,2.1675,2.1675,2.1674,0,0,2.1684,2.1673,2.1689,2.17,2.1696,2.1718,2.1657,2.1684,2.17,2.1644,2.168,2.1671,2.1667,2.1716,2.1737,2.1712,2.1822,2.1783,2.1791,2.1792,2.1817,2.1831,2.1844,2.1679,2.1678,2.1677,0,0,2.1784,2.1779,2.1819,2.1816,2.181,2.1791,2.1801,2.1787,2.1778,2.1814,2.1771,2.1789,2.1818,2.1815,2.1818,2.1914,2.1881,2.192,2.198,2.2008,2.2019,2.2029,2.2061,2.2073,2.1927,2.1927,2.1927,0,2.1845,2.1877,2.1843,2.1872,2.1876,2.1825,2.1864,2.1863,2.1863,2.1866,2.1838,2.1871,2.1865,2.1911,2.1934,2.1939,2.1947,2.1921,2.202,2.203,2.2039,2.2069,2.2081,2.1932,2.1931,2.1931,2.193,0,2.1952,2.1975,2.2007,2.2006,2.2015,2.2049,2.2018,2.2031,2.2006,2.1989,2.2025,2.2016,2.2025,2.2034,2.2011,2.2076,2.206,2.2027,2.1977,2.2058,2.2086,2.2097,2.1938,2.1937,2.1935,2.1934,0,0,2.2102,2.208,2.2092,2.209,2.2079,2.2096,2.2126,2.2134,2.2144,2.2146,2.2169,2.2193,2.2161,2.2164,2.214,2.2164,2.2237,2.2127,2.2126,2.2146,2.2305,2.2329,2.2343,2.2215,2.2217,2.2219,2.2305,0,2.2197,2.2247,2.2216,2.227,2.2289,2.224,2.2266,2.2262,2.2247,2.226,2.2243,2.226,2.2218,2.2219,2.2241,2.2224,2.2268,2.2217,2.2235,2.2236,2.2235,2.2358,2.2383,2.2465,2.2316,2.2318,2.2319,0,2.2314,2.2318,2.2374,2.2356,2.2363,2.2387,2.239,2.2404,2.2398,2.2385,2.2387,2.2356,2.2383,2.2334,2.237,2.2336,2.2341,2.2334,2.2336,2.2335,2.2281,2.2358,2.2491,2.2502,2.2336,2.2334,2.2333,0,2.2414,2.2434,2.2469,2.2469,2.245,2.2468,2.2461,2.2451,2.2457,2.246,2.2463,2.247,2.2473,2.2478,2.2449,2.2416,2.2487,2.2437,2.2476,2.2476,2.2492,2.2491,2.2625,2.2499,2.2499,2.2499,2.2498,0,2.2521,2.2557,2.2513,2.2535,2.2573,2.2536,2.2575,2.2562,2.2554,2.2571,2.253,2.2547,2.2508,2.2521,2.2499,2.253,2.2533,2.2522,2.2515,2.2524,2.2525,2.2526,2.2519,2.2502,2.2501,2.2501,2.25,0,2.264,2.2612,2.2647,2.2625,2.2621,2.2649,2.263,2.2649,2.263,2.2653,2.2656,2.2627,2.264,2.2611,2.2621,2.2605,2.2649,2.2634,2.2651,2.2646,2.2685,2.2681,2.2823,2.2838,2.2705,2.2706,2.2707,0,2.2709,2.2735,2.2715,2.2723,2.2718,2.2733,2.2737,2.2702,2.2709,2.2701,2.272,2.2729,2.2735,2.2757,2.2736,2.2743,2.2726,2.2775,2.2727,2.2734,2.2724,2.2722,2.2723,2.2785,2.2787,2.2788,2.2789,0,2.2834,2.2818,2.2827,2.283,2.2836,2.2838,2.2836,2.2845,2.2807,2.2816,2.2828,2.2832,2.284,2.2849,2.285,2.2842,2.2809,2.2805,2.2813,2.2822,2.283,2.2823,2.2676,2.2801,2.28,2.2799,2.2799,2.2798,2.2928,2.2947,2.2935,2.2945,2.294,2.2938,2.2954,2.2936,2.2945,2.2948,2.2927,2.2943,2.2933,2.2931,2.2926,2.2937,2.2915,2.2928,2.2931,2.2935,2.294,2.283,2.2938,2.2937,2.2937,2.2936,2.2936,0,2.3048,2.3037,2.3047,2.3044,2.3052,2.302,2.3015,2.3023,2.3038,2.3031,2.3036,2.3049,2.3056,2.3036,2.304,2.3053,2.3037,2.3055,2.3053,2.3051,2.2961,2.2952,2.3067,2.3067,2.3067,2.3067,2.3067,2.3067,2.3111,2.3141,2.3124,2.315,2.3139,2.3154,2.3154,2.3151,2.3145,2.3161,2.3166,2.3153,2.314,2.3142,2.3147,2.3141,2.3143,2.3166,2.3154,2.307,2.3057,2.3045,2.3036,2.3167,2.3167,2.3242,2.3243,2.3243]},{"header":{"parameterUnit":"m.s-1","parameterCategory":1,"la1":30.2991,"la2":30.254,"lo1":-89.0895,"lo2":-89.0444,"dy":0.0017,"dx":0.0017,"nx":28,"ny":28,"refTime":"2025-05-15T09:00:00:Z","depth":0,"parameterNumber":3,"parameterNumberName":"V-component_of_WINDS"},"data":[0,0,0,0,0,0,0,0,0,0,0,0,0,0,0,0,0,0,0,0,0,0,0,0,0,0,0,0,0,0,0,0,0,0,0,0,0,0,0,0,0,0,0,0,0,0,0,0,0,0,0,0,0,0,0,0,0,0,5.6743,5.6743,0,5.6821,5.6822,5.6823,5.6774,5.6772,5.677,5.6768,5.6843,5.6847,5.6851,0,0,0,0,0,0,0,0,0,0,0,0,0,5.6543,5.6547,5.6743,5.6744,5.6745,5.6821,5.6822,5.6823,5.6775,5.6772,5.6769,5.6767,5.6841,5.6846,5.6851,0,0,0,0,0,0,0,0,0,0,0,0,0,5.6626,5.6548,5.6742,5.673,5.6729,5.6821,5.6822,5.6823,5.6775,5.6772,5.6769,5.6765,5.684,5.6846,5.6852,5.6959,0,0,5.6871,5.6874,0,0,0,0,0,0,0,0,5.6622,5.6634,5.6731,5.6731,5.6731,5.6785,5.6779,5.6869,5.6776,5.6758,5.6768,5.6764,5.6826,5.6833,5.6855,5.6962,5.6965,5.6871,5.6875,5.6878,5.688,0,0,0,0,0,0,0,5.6616,5.663,5.6773,5.6732,5.6732,5.6718,5.6726,5.6796,5.681,5.6759,5.6756,5.6766,5.6825,5.6849,5.6856,5.6966,5.6871,5.6877,5.6881,5.6883,5.7162,5.7165,0,0,0,0,0,0,5.6612,5.6626,5.6771,5.6776,5.6667,5.6724,5.6733,5.6771,5.6809,5.6812,5.6769,5.6763,5.684,5.6849,5.6859,5.6985,5.6878,5.6884,5.6887,5.7158,5.7162,5.7166,0,0,0,0,0,0,5.6608,5.6626,5.6768,5.67,5.6717,5.6731,5.6774,5.6774,5.6798,5.6817,5.6818,5.6792,5.6838,5.685,5.6934,5.6986,5.6886,5.6892,5.7154,5.7159,5.7164,5.7238,0,0,0,0,0,0,5.6603,5.6624,5.6667,5.6701,5.6721,5.6844,5.6777,5.6778,5.681,5.6803,5.6838,5.684,5.6836,5.6925,5.694,5.6993,5.6897,5.7149,5.7156,5.7163,5.7231,5.7245,5.7258,0,0,0,0,0,5.6596,5.6684,5.667,5.6687,5.6775,5.6847,5.6858,5.6853,5.6814,5.6856,5.6867,5.6839,5.6978,5.6934,5.6951,5.7006,5.7146,5.7154,5.7162,5.7225,5.7242,5.7257,0,0,0,0,0,0,5.6654,5.6688,5.6673,5.6775,5.6809,5.6839,5.6891,5.6872,5.6916,5.6908,5.6898,5.6906,5.6993,5.7008,5.6958,5.711,5.7055,5.7068,5.7097,5.7114,5.7127,5.7122,5.6902,0,0,0,0,0,5.668,5.6738,5.6763,5.6851,5.6869,5.6878,5.6909,5.6902,5.6935,5.6949,5.6966,5.6998,5.7049,5.7082,5.713,5.7233,5.7238,5.7279,5.7292,5.7303,5.7313,5.7366,5.7384,5.7194,5.7194,5.7193,0,0,5.6732,5.6757,5.6795,5.6864,5.6889,5.6947,5.689,5.6954,5.6996,5.6958,5.7038,5.7052,5.7087,5.718,5.7221,5.7195,5.7367,5.7314,5.7322,5.7327,5.7376,5.7394,5.741,5.7199,5.7198,5.7197,0,0,5.6856,5.6883,5.6958,5.6984,5.7023,5.7028,5.7046,5.7078,5.7086,5.7167,5.7139,5.7187,5.7276,5.7301,5.7325,5.7457,5.7432,5.7472,5.7542,5.7593,5.7608,5.7621,5.7667,5.7683,5.7482,5.7483,5.7483,0,5.6916,5.7004,5.6998,5.7065,5.7094,5.7064,5.7138,5.7163,5.7215,5.7235,5.7205,5.7313,5.7334,5.7432,5.7464,5.7485,5.7503,5.7468,5.7607,5.762,5.7632,5.7675,5.7692,5.7487,5.7487,5.7486,5.7486,0,5.7074,5.7135,5.7191,5.7243,5.7279,5.7349,5.7351,5.7388,5.7377,5.7384,5.7465,5.7489,5.754,5.7563,5.7553,5.7658,5.764,5.7609,5.7553,5.7655,5.7695,5.7712,5.7494,5.7492,5.7491,5.749,0,0,5.7239,5.7286,5.7306,5.7329,5.7368,5.7415,5.7481,5.7533,5.7563,5.7599,5.7654,5.7728,5.7698,5.7726,5.7718,5.7763,5.7863,5.7726,5.7727,5.7749,5.7978,5.8001,5.802,5.7847,5.785,5.7853,5.7975,0,5.7365,5.7484,5.748,5.759,5.7645,5.7615,5.7673,5.7702,5.771,5.7755,5.7762,5.7815,5.7773,5.7789,5.7833,5.7842,5.7909,5.7833,5.7895,5.7898,5.7887,5.8041,5.8066,5.818,5.799,5.7993,5.7995,0,5.7528,5.7571,5.7687,5.7716,5.7739,5.7792,5.7837,5.7882,5.7913,5.7915,5.7945,5.7929,5.7993,5.7937,5.8025,5.7973,5.7998,5.8006,5.801,5.8015,5.7952,5.8049,5.8216,5.8233,5.802,5.8018,5.8016,0,5.7635,5.7721,5.7801,5.7821,5.7858,5.7895,5.7911,5.7939,5.797,5.8008,5.8027,5.8072,5.8097,5.8131,5.8127,5.8086,5.8215,5.8159,5.8217,5.8217,5.8245,5.8243,5.8417,5.8263,5.8262,5.8262,5.8262,0,5.7775,5.7847,5.7849,5.7898,5.7977,5.7969,5.8046,5.8058,5.8083,5.8132,5.8108,5.8154,5.8146,5.8191,5.8188,5.826,5.8271,5.8273,5.8271,5.8275,5.8274,5.829,5.8282,5.8266,5.8266,5.8265,5.8264,0,5.7908,5.7913,5.7998,5.8025,5.8034,5.809,5.8112,5.8157,5.8162,5.8224,5.8238,5.8246,5.8297,5.8296,5.8355,5.8352,5.844,5.8429,5.843,5.8428,5.8485,5.8479,5.8675,5.8699,5.853,5.8532,5.8533,0,5.7998,5.8052,5.8085,5.8117,5.8136,5.8188,5.8218,5.8212,5.8244,5.8283,5.8322,5.8372,5.8412,5.8495,5.8504,5.8548,5.8537,5.8603,5.8544,5.8545,5.8537,5.8533,5.8537,5.8614,5.8616,5.8618,5.8619,0,5.8155,5.8154,5.82,5.8247,5.8284,5.832,5.8353,5.8379,5.8376,5.8413,5.8467,5.8497,5.8557,5.8605,5.8647,5.8661,5.8639,5.8638,5.8653,5.8657,5.8655,5.8655,5.8461,5.8633,5.8632,5.8631,5.863,5.8629,5.8267,5.8314,5.8344,5.8395,5.8419,5.845,5.8493,5.8504,5.8548,5.8597,5.859,5.8649,5.8675,5.8729,5.8747,5.8791,5.8768,5.8791,5.8796,5.8802,5.8808,5.8648,5.8799,5.8799,5.8798,5.8798,5.8798,0,5.8422,5.844,5.8487,5.8534,5.8574,5.8551,5.8585,5.8619,5.8672,5.8699,5.8738,5.8798,5.8844,5.8857,5.8901,5.8934,5.8924,5.8945,5.8942,5.8945,5.8827,5.8809,5.8952,5.8952,5.8952,5.8952,5.8952,5.8952,5.8507,5.8584,5.8586,5.8672,5.8689,5.8747,5.8769,5.8796,5.8817,5.8886,5.8925,5.8933,5.8953,5.8998,5.9039,5.9041,5.9058,5.9083,5.9081,5.8969,5.8954,5.8939,5.8922,5.9087,5.9087,5.9195,5.9196,5.9197]}]]